Meteo Giornale » Osservazioni meteo Italia » Pisa-S Giusto

ore: 00:15 - Osservazioni Meteo Pisa-S Giusto
Lat. 43° 41' N Lon. 10° 23' E Alt. 2 metri s.l.m.

poco_nuvoloso Europe/Rome

3 °C

Poco Nuvoloso

Temp. 24 Ore

3 °C

9 °C

Est/Sud-Est

13 Km/h

Dew point 1 °C

Umidità 86 %

Visibilità  10 Km

Il sole sorge alle ore 07:41

Il sole tramonta alle ore 16:43

Data e Ora Cielo e Fenomeni T °C DP °C Um. % Pres. hPa Vis. km Vento km/h
Oggi h: 00:15 poco_nuvoloso Poco Nuvoloso 3 1 86 1002 10 E/SE 13
Ieri h: 23:45 poco_nuvoloso Poco Nuvoloso 3 2 93 1003 10 E/SE 13
Ieri h: 23:15 sereno Sereno 3 2 93 1003 10 E 7.4
Ieri h: 22:45 sereno Sereno 3 2 93 1004 10 E/NE 7.4
Ieri h: 22:15 poco_nuvoloso Poco Nuvoloso 3 2 93 1004 10 E/SE 11.1
Ieri h: 21:45 poco_nuvoloso Poco Nuvoloso 3 2 93 1004 10 E 7.4
Ieri h: 21:15 poco_nuvoloso Poco Nuvoloso 4 2 86 1003 10 E/SE 7.4
Ieri h: 20:45 sereno Sereno 4 2 86 1004 10 E 13
Ieri h: 20:15 sereno Sereno 4 3 93 1004 10 E/SE 13
Ieri h: 19:45 sereno Sereno 4 3 93 1004 10 E/SE 14.8
Ieri h: 19:15 sereno Sereno 4 3 93 1004 10 E/SE 14.8
Ieri h: 18:45 sereno Sereno 4 3 93 1004 10 E/SE 14.8
Ieri h: 18:15 sereno Sereno 5 3 86 1003 10 E/SE 16.7
Ieri h: 17:45 sereno Sereno 5 4 93 1003 10 E/SE 14.8
Ieri h: 17:15 poco_nuvoloso Poco Nuvoloso 6 4 86 1003 10 E/SE 16.7
Ieri h: 16:45 poco_nuvoloso Poco Nuvoloso 6 5 93 1003 10 E 14.8
Ieri h: 16:15 poco_nuvoloso Poco Nuvoloso 7 5 87 1003 10 E/SE 16.7
Ieri h: 15:45 poco_nuvoloso Poco Nuvoloso 7 5 87 1003 10 E/SE 13
Ieri h: 15:15 poco_nuvoloso Poco Nuvoloso 8 6 87 1003 10 E/SE 13
Ieri h: 14:45 poco_nuvoloso Poco Nuvoloso 9 6 81 1003 10 E/SE 14.8
Ieri h: 14:15 nuvoloso Nuvoloso 9 7 87 1003 10 E/SE 14.8
Ieri h: 13:45 nuvoloso Nuvoloso 9 7 87 1003 10 E/SE 13
Ieri h: 13:15 nuvoloso Nuvoloso 9 7 87 1003 10 E 11.1
Ieri h: 12:45 nuvoloso Nuvoloso 9 6 81 1003 10 SE 13
Ieri h: 12:15 nuvoloso Nuvoloso 9 7 87 1004 10 SE 13
Ieri h: 11:45 nuvoloso Nuvoloso 9 7 87 1004 10 SE 11.1
Ieri h: 11:15 nuvoloso Nuvoloso 9 7 87 1004 10 SE 9.3
Ieri h: 10:45 nuvoloso Nuvoloso 8 5 81 1004 10 N 5.5
Ieri h: 10:15 nuvoloso Nuvoloso 7 6 93 1004 10 N/NO 11.1
Ieri h: 09:45 nuvoloso Nuvoloso 7 6 93 1003 10 N 11.1
Ieri h: 09:15 nuvoloso Nuvoloso 6 6 100 1003 10 N/NO 9.3
Ieri h: 08:45 nuvoloso Nuvoloso 6 6 100 1003 10 N 3.7
Ieri h: 08:15 coperto_pioggia Pioggia Debole 6 5 93 1002 7 E 14.8
Ieri h: 07:45 molto_nuvoloso Molto Nuvoloso 5 5 100 1002 8 E 24
Ieri h: 07:15 coperto_pioggia Pioggia Debole Foschia 6 5 93 1002 5 E/SE 25.9
Ieri h: 06:45 coperto_pioggia Pioggia Debole Foschia 6 6 100 1002 5 E/SE 25.9
Ieri h: 06:15 coperto_pioggia Pioggia Debole Foschia 6 6 100 1002 5 E 22.2
Ieri h: 05:45 coperto_pioggia Pioggia Debole Foschia 6 6 100 1003 5 E 16.7
Ieri h: 05:15 coperto_pioggia Pioggia Debole 5 5 100 1003 6 E/SE 14.8
Ieri h: 04:45 coperto_pioggia Pioggia Debole 5 5 100 1003 6 NE 11.1
Ieri h: 04:15 coperto_pioggia Pioggia Debole 5 5 100 1003 6 N/NE 13
Ieri h: 03:45 coperto_pioggia Pioggia Debole 5 5 100 1004 6 E 22.2
Ieri h: 03:15 coperto_pioggia Pioggia Debole 6 5 93 1005 8 E/SE 14.8
Ieri h: 02:45 molto_nuvoloso Molto Nuvoloso 5 4 93 1005 10 E/SE 9.3
Ieri h: 02:15 coperto_pioggia Pioggia Debole 5 3 86 1006 10 E 18.5
Ieri h: 01:45 coperto_pioggia Pioggia Debole 5 2 80 1007 10 E/SE 18.5
Ieri h: 01:15 coperto_pioggia Pioggia Debole 5 1 75 1007 10 SE 20.3
Ieri h: 00:45 molto_nuvoloso Molto Nuvoloso 6 1 70 1007 10 SE 16.7
Ieri h: 00:15 nuvoloso Nuvoloso 5 3 86 1007 10 E/SE 14.8
Ieri h: 23:45 nuvoloso Nuvoloso 4 4 100 1008 10 N 5.5